www.pogodaiklimat.ru
Время
(UTC), дата
18 27.07
21 27.07
00 28.07
03 28.07
06 28.07
09 28.07
12 28.07
15 28.07
18 28.07
21 28.07
00 29.07
03 29.07
06 29.07
09 29.07
12 29.07
15 29.07
18 29.07
21 29.07
00 30.07
03 30.07
06 30.07
09 30.07
12 30.07
15 30.07
18 30.07
21 30.07
00 31.07
03 31.07
06 31.07
09 31.07
12 31.07
15 31.07
18 31.07
21 31.07
00 1.08
03 1.08
06 1.08
09 1.08
12 1.08
15 1.08
18 1.08
21 1.08
00 2.08
03 2.08
06 2.08
09 2.08
12 2.08
15 2.08
18 2.08
21 2.08
00 3.08
03 3.08
06 3.08
09 3.08
12 3.08
15 3.08
Ветер
(напр.,м/с)
Видим. Явления Облачность Т
(С)
Тd
(С)
f
(%)
Тe
(С)
Тes
(С)
Комфортность P
(гПа)
Po
(гПа)
Тmin
(С)
Tmax
(С)
R
(мм)
R24
(мм)
S
(см)
СЗ 2-2
{3}
10 км 3/0
[Ci sp]
+19.4 +13.3 68 +21 +21 комфорт 1019.6 1000.5
СЗ 2-2
{2}
10 км ясно +17.1 +13.5 79 +17 +17 тепло 1019.7 1000.4
СЗ 2-2
{2}
10 км 3/0
[Ci sp]
+15.4 +13.4 88 +15 +15 тепло 1020.1 1000.7
СЗ 1-1
{2}
10 км 3/0
[Ci fib]
+19.2 +15.0 77 +22 +24 комфорт 1019.8 1000.7 +15.4
СЗ 1-3
{3}
10 км 3/3 600 м
[Cu med, cong]
+23.9 +12.6 49 +26 +33 жарко 1019.4 1000.6
СЗ 2-4
{6}
10 км 4/4 600 м
[Cb calv]
+24.5 +10.9 42 +26 +34 жарко 1019.1 1000.3
З 3-4
{6}
10 км 4/3 1000 м
[Cb calv Ci ing]
+24.7 +11.8 44 +26 +31 жарко 1018.2 999.5
З 2-4
{6}
10 км 4/3 1000 м
[Cb calv Ci ing]
+24.4 +12.4 47 +26 +27 жарко 1017.7 999.0 +26.0
СЗ 2-2
{4}
10 км 3/0
[Ci sp]
+18.9 +12.3 66 +20 +20 тепло 1018.0 998.9
З 2-2
{3}
10 км ясно +16.8 +12.4 75 +17 +17 тепло 1018.0 998.8
З 1-1
{3}
10 км ясно +15.2 +11.7 80 +16 +16 тепло 1017.9 998.5
ЮЗ 2-3
{4}
10 км ясно +18.0 +14.1 78 +19 +20 тепло 1017.9 998.7 +14.3
ЮЗ 3-5
{5}
10 км ясно +24.5 +13.1 49 +27 +34 жарко 1017.1 998.4
З 4-7
{7}
10 км 4/4 600 м
[Cb calv]
+26.6 +12.3 41 +28 +34 жарко 1016.5 997.9
З 5-7
{9}
10 км 6/6 600 м
[Cb calv]
+27.2 +10.8 36 +28 +30 жарко 1015.1 996.6
ЮЗ 4-6
{8}
10 км 6/3 1000 м
[Sc]
+26.3 +11.8 40 +28 +28 жарко 1013.7 995.2 +27.5
ЮЗ 4-4
{6}
10 км 8/4 600 м
[Sc Ac trans]
+21.3 +13.9 63 +24 +24 комфорт 1013.8 994.9
ЮЗ 4-6
{6}
10 км 6/3 600 м
[Sc Ac trans]
+19.4 +13.0 66 +21 +21 комфорт 1012.6 993.7
ЮЗ 5-6
{6}
10 км 6/3 600 м
[Sc Ac trans]
+18.6 +12.4 67 +19 +19 тепло 1011.2 992.2
ЮЗ 5-7
{7}
10 км 8/3 1000 м
[Sc Ac trans Ci fib]
+20.1 +11.9 59 +22 +22 комфорт 1010.1 991.3 +18.5
ЮЗ 6-10
{10}
10 км 8/6 600 м
[Cb calv Ac trans]
+25.3 +11.4 42 +27 +28 жарко 1008.2 989.6
ЮЗ 8-12
{12}
10 км 10/6 1000 м
[Cb calv As op]
+26.5 +12.2 41 +28 +28 жарко 1007.0 988.6
З 7-10
{13}
10 км в посл. час ливневой дождь 8/6 1000 м
[Cb calv Ac trans]
+20.5 +15.6 73 +23 +24 комфорт 1008.5 989.7
З 5-8
{12}
10 км 6/6 1000 м
[Cb calv]
+22.5 +14.3 60 +26 +26 жарко 1007.6 988.9 +28.4 0.0
ЮЗ 4-4
{8}
10 км 6/6 1000 м
[Cb calv]
+18.7 +14.0 74 +19 +19 по сезону 1008.0 989.1
ЮЗ 2-3
{8}
10 км 6/6 1000 м
[Sc]
+16.4 +13.2 81 +17 +17 по сезону 1007.8 988.7
З 3-4
{5}
10 км 6/6 1000 м
[Sc]
+15.0 +12.5 85 +14 +14 прохладно 1007.3 988.2
З 3-4
{5}
10 км 6/6 600 м
[Cb calv]
+17.3 +13.4 78 +17 +18 по сезону 1006.5 987.5 +14.1
Ю 3-4
{5}
10 км 8/3 1000 м
[Cb calv Ac trans]
+19.8 +12.8 64 +22 +25 комфорт 1006.0 987.2
З 4-6
{10}
10 км в посл. час ливневой дождь 8/5 1000 м
[Cb cap Ac trans]
+18.8 +12.2 65 +19 +22 прохладно 1005.0 986.1
З 5-10
{12}
10 км {ливн. дождь} 6/4 1000 м
[Cb calv Ac trans]
+23.2 +6.4 34 +24 +26 комфорт 1004.1 985.5
З 3-5
{11}
10 км 8/3 1000 м
[Cb calv Ac trans]
+20.7 +7.7 43 +22 +23 комфорт 1005.0 986.2 +23.6 0.0
З 2-3
{12}
10 км 3/3 1000 м
[Cb calv Ac trans]
+14.3 +9.0 70 +14 +14 холодно 1006.5 987.3
ЮЗ 3-3
{4}
10 км 3/0
[Ac trans]
+12.2 +8.2 77 +11 +11 очень
холодно
1006.1 986.7
Ю 3-3
{4}
10 км 8/0
[Ac trans]
+11.1 +8.1 82 +9 +9 холодно 1006.4 986.9
ЮЗ 1-2
{3}
10 км 8/0
[Ac trans]
+13.9 +9.9 77 +14 +15 прохладно 1006.4 987.2 +10.6
В 1-2
{3}
10 км 8/0
[Ac trans Ci sp]
+17.4 +10.8 65 +18 +25 прохладно 1005.7 986.8
ЮВ 2-4
{4}
10 км 9/3 600 м
[Cu med, cong Ac As]
+20.1 +9.8 51 +22 +26 комфорт 1005.4 986.5
Ю 3-4
{5}
10 км 10/4 1000 м
[Cb calv As trans]
+19.3 +10.6 57 +21 +22 комфорт 1004.7 985.9
ЮВ 1-2
{4}
10 км слаб. ливневой дождь 10/4 1000 м
[Cb cap As trans]
+16.0 +12.1 78 +17 +17 прохладно 1004.3 985.3 +20.1 0.3
В 2-4
{4}
10 км слаб. ливневой дождь 10/8 300 м
[Cb cap As op]
+14.3 +12.6 90 +14 +14 холодно 1002.5 983.4
С 7-11
{11}
10 км слаб. ливневой дождь 10/8 300 м
[Cb calv As op]
+13.4 +12.0 91 +11 +11 холодно 998.0 979.0
С 6-9
{12}
10 км слаб. ливневой дождь 10/10 200 м
[Cb cap As op]
+12.6 +11.3 92 +10 +10 холодно 994.5 975.4
СЗ 7-10
{12}
4000 м ливневой дождь 10/10 200 м
[Cb cap]
+12.9 +11.3 90 +10 +10 очень
холодно
994.6 975.6 +12.6 25
СЗ 7-13
{15}
10 км слаб. ливневой дождь 10/10 200 м
[Cb cap]
+13.5 +10.9 84 +11 +11 очень
холодно
999.0 979.9
З 8-13
{13}
10 км {ливн. дождь} 8/6 600 м
[Cb calv Ac trans Ci sp]
+17.7 +12.0 69 +17 +17 прохладно 1003.0 984.1
СЗ 4-6
{13}
10 км в посл. час ливневой дождь 8/5 600 м
[Cb calv Ac trans Ci sp]
+18.6 +11.2 62 +19 +21 прохладно 1005.9 987.0
СЗ 2-3
{7}
10 км {ливн. дождь} 8/6 600 м
[Cb calv Ac trans Ci sp]
+16.6 +13.0 79 +17 +17 прохладно 1007.7 988.6 +19.0 4
С 1-1
{4}
10 км {ливн. дождь} 8/6 600 м
[Cb calv Ac trans Ci sp]
+14.5 +12.1 86 +15 +15 прохладно 1009.5 990.3
СВ 1-1
{2}
10 км в посл. час ливневой дождь 8/5 600 м
[Cb calv Ac trans Ci sp]
+12.8 +10.8 88 +13 +13 прохладно 1010.4 991.0
штиль 0
{1}
10 км {ливн. дождь} 8/6 600 м
[Cb calv Ac trans]
+13.2 +11.9 92 +13 +13 прохладно 1011.3 992.0
С 1-2
{2}
10 км слаб. ливневой дождь 9/8 300 м
[Cb cap Ac trans]
+13.9 +12.5 91 +14 +14 прохладно 1012.8 993.5 +12.2 1
С 2-4
{4}
10 км {ливн. дождь} 8/6 600 м
[Cb calv Ac trans]
+16.3 +11.7 74 +16 +19 холодно 1014.0 994.8
В 2-3
{4}
10 км {ливн. дождь} 8/6 600 м
[Cb calv Ac trans]
+19.6 +10.1 54 +21 +25 комфорт 1014.4 995.4
С 3-6
{8}
10 км {ливн. дождь} 8/6 600 м
[Cb calv Ac trans]
+20.9 +7.8 43 +23 +24 комфорт 1014.8 995.9
СЗ 3-5
{6}
10 км 3/3 1000 м
[Sc]
+20.0 +8.5 47 +21 +22 комфорт 1015.5 996.5 +21.3 0.0
Местоположение метеостанции Чебоксары (Чувашия, Россия): широта 56.08 долгота 47.33 высота над уровнем моря 163 м.
В архиве по умолчанию представлена погода в Чебоксарах за последнюю неделю. Архивные данные за месяц целиком и за предыдущие месяцы, начиная с января 2011 года, Вы можете получить, выбрав интересующий диапазон дат из раскрывающегося списка и нажав кнопку "Найти!".
*Определитесь, кто Вы:
Внимание! Время в таблицах - всемирное. Для получения местного времени необходимо прибавить поправку, которая равна 3 ч.
Смотрите также архив погоды в соседних городах и на ближайших метеорологических станциях:
Партнеры нашего сайта:      
Пояснения к столбцам:
  • Ветер - указаны скорость ветра в м/с - средняя за 10 мин, порывы в срок и между сроками (в фигурных скобках) и направление, откуда дует ветер: С - северный,
  • СВ - северо-восточный, В - восточный, ЮВ - юго-восточный, Ю - южный, ЮЗ - юго-западный, З - западный, СЗ - северо-западный.
  • Видимость - горизонтальная дальность видимости в метрах или километрах. При видимости от 1 до 10 км при отсутствии осадков обычно наблюдается дымка, при ухудшении видимости до 1 км и менее - туман. В сухую погоду видимость может ухудшаться дымом, пылью или мглою.
  • Явления - указаны атмосферные явления, наблюдавшиеся в срок или в последний час перед сроком; фигурными скобками обозначены явления, наблюдавшиеся между сроками (за 1-3 часа до срока); квадратными скобками обозначены град или гололедные отложения с указанием их диаметра в мм.
  • Облачность - указаны через наклонную черту общая и нижняя облачность в баллах и высота нижней границы облаков в метрах; квадратными скобками обозначены формы облаков: Ci - перистые, Cs - перисто-слоистые, Cc - перисто-кучевые, Ac - высококучевые, As - высокослоистые, Sc - слоисто-кучевые, Ns - слоисто-дождевые, Cu - кучевые, Cb - кучево-дождевые. Подробнее классификацию облаков см. в Атласе облаков (PDF).
  • T - Температура воздуха - температура, измеренная на высоте 2 м над землей.
  • Td - Температура точки росы - температура, при понижении до которой содержащийся в воздухе водяной пар достигнет насыщения.
  • f - Относительная влажность воздуха - влажноcть воздуха, измеренная на высоте 2 м над землей.
  • Te - Эффективная температура - температура, которую ощущает одетый по сезону человек в тени. Характеристика душности погоды. При расчете учитывается влияние влажности воздуха и скорости ветра на теплоощущения человека.
  • Tes - Эффективная температура на солнце - температура, которую ощущает человек, с поправкой на солнечный нагрев. Характеристика знойности погоды. Зависит от высоты солнца над горизонтом, облачности и скорости ветра. Ночью, в пасмурную погоду, а также при ветре 12 м/с и более поправка равна нулю.
  • P - Атмосферное давление - приведенное к уровню моря атмосферное давление.
  • Po - Атмосферное давление - измеренное на уровне метеостанции атмосферное давление.
  • Tmin - Минимальная температура - минимум температуры воздуха на высоте 2 м над землей.
  • Tmax - Максимальная температура - максимум температуры воздуха на высоте 2 м над землей.
  • R - Количество осадков - Количество выпавших осадков за период времени, мм. При наведении курсора мыши на число - период времени, за который выпало указанное количество осадков.
  • R24 - Количество осадков - Количество выпавших осадков за 24 часа, мм.
  • S - Снежный покров - Высота снежного покрова, см. При наведении курсора мыши на число - состояние снежного покрова и степень покрытия местности в баллах.